TimeEST,TemperatureF,Dew PointF,Humidity,Sea Level PressureIn,VisibilityMPH,Wind Direction,Wind SpeedMPH,Gust SpeedMPH,PrecipitationIn,Events,Conditions,WindDirDegrees,DateUTC
12:53 AM,33.1,27.0,78,30.28,10.0,Calm,Calm,-,N/A,,Clear,0,2013-12-12 05:53:00
1:53 AM,36.0,23.0,59,30.28,10.0,Calm,Calm,-,N/A,,Clear,0,2013-12-12 06:53:00
2:53 AM,35.1,21.0,57,30.29,10.0,Calm,Calm,-,N/A,,Clear,0,2013-12-12 07:53:00
3:53 AM,33.1,21.0,61,30.30,10.0,Calm,Calm,-,N/A,,Clear,0,2013-12-12 08:53:00
4:53 AM,32.0,19.9,61,30.29,10.0,North,4.6,-,N/A,,Clear,350,2013-12-12 09:53:00
5:53 AM,32.0,19.9,61,30.30,10.0,NNW,3.5,-,N/A,,Clear,330,2013-12-12 10:53:00
6:53 AM,33.1,19.0,56,30.33,10.0,Calm,Calm,-,N/A,,Clear,0,2013-12-12 11:53:00
7:53 AM,30.9,19.9,64,30.37,10.0,Calm,Calm,-,N/A,,Clear,0,2013-12-12 12:53:00
8:53 AM,37.0,19.9,50,30.38,10.0,North,4.6,-,N/A,,Clear,360,2013-12-12 13:53:00
9:53 AM,41.0,21.0,45,30.40,10.0,NNE,5.8,-,N/A,,Clear,20,2013-12-12 14:53:00
10:53 AM,44.1,19.0,37,30.40,10.0,North,4.6,-,N/A,,Clear,350,2013-12-12 15:53:00
11:53 AM,46.9,12.9,25,30.38,10.0,Calm,Calm,-,N/A,,Clear,0,2013-12-12 16:53:00
12:53 PM,48.9,14.0,25,30.37,10.0,Variable,4.6,-,N/A,,Clear,0,2013-12-12 17:53:00
1:53 PM,48.9,12.9,24,30.35,10.0,Variable,4.6,-,N/A,,Clear,0,2013-12-12 18:53:00
2:53 PM,48.9,14.0,25,30.33,10.0,Calm,Calm,-,N/A,,Clear,0,2013-12-12 19:53:00
3:53 PM,50.0,14.0,24,30.33,10.0,NNE,4.6,-,N/A,,Clear,30,2013-12-12 20:53:00
4:53 PM,46.0,15.1,29,30.33,10.0,Calm,Calm,-,N/A,,Clear,0,2013-12-12 21:53:00
5:53 PM,41.0,17.1,38,30.34,10.0,NE,4.6,-,N/A,,Clear,50,2013-12-12 22:53:00
6:53 PM,39.9,12.0,32,30.36,10.0,NNE,4.6,-,N/A,,Clear,20,2013-12-12 23:53:00
7:53 PM,37.9,10.9,33,30.37,10.0,NNE,5.8,-,N/A,,Clear,20,2013-12-13 00:53:00
8:53 PM,37.0,10.0,33,30.37,10.0,NNE,4.6,-,N/A,,Clear,30,2013-12-13 01:53:00
9:53 PM,34.0,12.9,42,30.36,10.0,NE,3.5,-,N/A,,Clear,50,2013-12-13 02:53:00
10:53 PM,35.1,8.1,33,30.35,10.0,Calm,Calm,-,N/A,,Clear,0,2013-12-13 03:53:00
11:53 PM,28.9,18.0,64,30.35,10.0,Calm,Calm,-,N/A,,Clear,0,2013-12-13 04:53:00